Reno, NV

4:20 PM PST on January 19, 2017 (GMT -0800)
Reno - Stead

Weather History for KRTS - January, 2013

Change the Weather History Date:

Tuesday, January 22, 2013

  Actual Average (KRNO) Record (KRNO)
Temperature  
Mean Temperature 24 °F -  
Max Temperature 39 °F 47 °F 65 °F (1981)
Min Temperature 8 °F 22 °F -9 °F (1890)
Degree Days  
Heating Degree Days 42    
Moisture  
Dew Point 18 °F    
Average Humidity 78    
Maximum Humidity 93    
Minimum Humidity 49    
Precipitation  
Precipitation 0.00 in - - ()
Sea Level Pressure  
Sea Level Pressure 30.24 in    
Wind  
Wind Speed 1 mph (East)    
Max Wind Speed 9 mph    
Max Gust Speed -    
Visibility 8 miles    
Events      
Averages and records for this station are not official NWS values.
T = Trace of Precipitation, MM = Missing Value Source: NWS Daily Summary

Daily Weather History Graph

Daily Weather History Graph

Search for Another Location

Airport or City:

Trip Planner

Search our weather history database for the weather conditions in past years. The results will help you decide how hot, cold, wet, or windy it might be!

Date:

Astronomy

Jan. 22, 2013 Rise Set
Actual Time 7:14 AM PST 5:08 PM PST
Civil Twilight 6:45 AM PST 5:37 PM PST
Nautical Twilight 6:12 AM PST 6:09 PM PST
Astronomical Twilight 5:40 AM PST 6:41 PM PST
Moon 1:34 PM PST (1/22) 3:40 AM PST (1/22)
Length of Visible Light 10h 51m
Length of Day
9h 53m
Waxing Gibbous, 83% of the Moon is Illuminated
Jan 22
Waxing Gibbous
Jan 26
Full
Feb 3
Last Quarter
Feb 9
New
Feb 17
First Quarter

Hourly Weather History & Observations

Time (PST) Temp. Windchill Dew Point Humidity Pressure Visibility Wind Dir Wind Speed Gust Speed Precip Events Conditions
12:15 AM 17.6 °F - 14.0 °F 86% 30.33 in 7.0 mi Calm Calm - N/A   Clear
12:35 AM 14.0 °F - 8.6 °F 79% 30.33 in 8.0 mi Calm Calm - N/A   Clear
12:55 AM 15.8 °F - 14.0 °F 93% 30.32 in 7.0 mi Calm Calm - N/A   Clear
1:15 AM 14.0 °F - 10.4 °F 86% 30.32 in 7.0 mi Calm Calm - N/A   Clear
1:35 AM 14.0 °F - 10.4 °F 86% 30.32 in 8.0 mi Calm Calm - N/A   Clear
1:55 AM 15.8 °F - 10.4 °F 79% 30.31 in 8.0 mi Calm Calm - N/A   Clear
2:15 AM 15.8 °F - 12.2 °F 86% 30.31 in 9.0 mi Calm Calm - N/A   Clear
2:35 AM 15.8 °F - 10.4 °F 79% 30.30 in 8.0 mi Calm Calm - N/A   Clear
2:55 AM 14.0 °F - 10.4 °F 86% 30.29 in 7.0 mi Calm Calm - N/A   Clear
3:15 AM 14.0 °F - 10.4 °F 86% 30.29 in 7.0 mi Calm Calm - N/A   Clear
3:35 AM 14.0 °F - 10.4 °F 86% 30.28 in 8.0 mi Calm Calm - N/A   Clear
3:55 AM 14.0 °F - 8.6 °F 79% 30.28 in 9.0 mi Calm Calm - N/A   Clear
4:15 AM 12.2 °F - 8.6 °F 85% 30.28 in 10.0 mi Calm Calm - N/A   Clear
4:35 AM 14.0 °F - 10.4 °F 86% 30.27 in 7.0 mi Calm Calm - N/A   Clear
4:55 AM 14.0 °F 6.5 °F 10.4 °F 86% 30.27 in 5.0 mi ESE 4.6 mph - N/A   Clear
5:15 AM 14.0 °F - 10.4 °F 86% 30.27 in 5.0 mi Calm Calm - N/A   Clear
5:35 AM 14.0 °F - 10.4 °F 86% 30.28 in 6.0 mi Calm Calm - N/A   Clear
5:55 AM 12.2 °F - 8.6 °F 85% 30.28 in 7.0 mi Calm Calm - N/A   Clear
6:15 AM 14.0 °F 8.2 °F 10.4 °F 86% 30.28 in 5.0 mi North 3.5 mph - N/A   Clear
6:35 AM 14.0 °F - 10.4 °F 86% 30.27 in 5.0 mi Calm Calm - N/A   Clear
6:55 AM 10.4 °F - 5.0 °F 79% 30.27 in 8.0 mi Calm Calm - N/A   Clear
7:15 AM 8.6 °F - 5.0 °F 85% 30.27 in 8.0 mi Calm Calm - N/A   Clear
7:35 AM 12.2 °F - 8.6 °F 85% 30.27 in 5.0 mi Calm Calm - N/A   Clear
7:55 AM 14.0 °F - 8.6 °F 79% 30.27 in 5.0 mi Calm Calm - N/A   Clear
8:15 AM 15.8 °F - 12.2 °F 86% 30.27 in 5.0 mi Calm Calm - N/A   Clear
8:35 AM 15.8 °F 10.2 °F 14.0 °F 93% 30.27 in 5.0 mi SE 3.5 mph - N/A   Clear
8:55 AM 17.6 °F - 14.0 °F 86% 30.28 in 4.0 mi Calm Calm - N/A   Haze
9:15 AM 21.2 °F - 17.6 °F 86% 30.28 in 4.0 mi Calm Calm - N/A   Clear
9:55 AM 26.6 °F - 21.2 °F 80% 30.28 in 5.0 mi Calm Calm - N/A   Haze
10:15 AM 28.4 °F - 21.2 °F 74% 30.28 in 8.0 mi Calm Calm - N/A   Clear
10:35 AM 28.4 °F - 19.4 °F 69% 30.28 in 9.0 mi Calm Calm - N/A   Clear
10:55 AM 30.2 °F - 21.2 °F 69% 30.27 in 10.0 mi Calm Calm - N/A   Clear
11:15 AM 32.0 °F - 21.2 °F 64% 30.26 in 10.0 mi Calm Calm - N/A   Clear
11:35 AM 32.0 °F - 23.0 °F 69% 30.26 in 10.0 mi Calm Calm - N/A   Clear
11:55 AM 33.8 °F 30.8 °F 21.2 °F 60% 30.25 in 10.0 mi East 3.5 mph - N/A   Clear
12:15 PM 35.6 °F 32.8 °F 21.2 °F 56% 30.24 in 9.0 mi ESE 3.5 mph - N/A   Clear
12:35 PM 35.6 °F 32.8 °F 23.0 °F 60% 30.23 in 9.0 mi ESE 3.5 mph - N/A   Clear
12:55 PM 35.6 °F - 23.0 °F 60% 30.22 in 8.0 mi Calm Calm - N/A   Clear
1:15 PM 39.2 °F 37.0 °F 23.0 °F 52% 30.21 in 10.0 mi East 3.5 mph - N/A   Clear
1:35 PM 37.4 °F 34.9 °F 23.0 °F 56% 30.20 in 10.0 mi SE 3.5 mph - N/A   Clear
1:55 PM 39.2 °F 37.0 °F 21.2 °F 49% 30.20 in 10.0 mi ESE 3.5 mph - N/A   Clear
2:15 PM 39.2 °F 35.0 °F 23.0 °F 52% 30.19 in 10.0 mi East 5.8 mph - N/A   Clear
2:35 PM 39.2 °F 37.0 °F 23.0 °F 52% 30.19 in 10.0 mi ESE 3.5 mph - N/A   Clear
2:55 PM 39.2 °F 35.9 °F 24.8 °F 56% 30.19 in 10.0 mi East 4.6 mph - N/A   Clear
3:15 PM 39.2 °F 35.9 °F 24.8 °F 56% 30.18 in 10.0 mi East 4.6 mph - N/A   Clear
3:35 PM 37.4 °F 32.8 °F 24.8 °F 60% 30.18 in 10.0 mi East 5.8 mph - N/A   Clear
3:55 PM 37.4 °F 32.1 °F 24.8 °F 60% 30.18 in 10.0 mi East 6.9 mph - N/A   Clear
4:15 PM 35.6 °F 30.7 °F 24.8 °F 65% 30.19 in 10.0 mi East 5.8 mph - N/A   Clear
4:35 PM 32.0 °F 25.6 °F 24.8 °F 75% 30.19 in 9.0 mi East 6.9 mph - N/A   Clear
4:55 PM 32.0 °F 24.8 °F 24.8 °F 75% 30.19 in 9.0 mi East 8.1 mph - N/A   Clear
5:15 PM 32.0 °F 24.8 °F 23.0 °F 69% 30.19 in 9.0 mi East 8.1 mph - N/A   Clear
5:35 PM 30.2 °F 21.9 °F 23.0 °F 75% 30.20 in 10.0 mi East 9.2 mph - N/A   Clear
5:55 PM 28.4 °F 19.7 °F 23.0 °F 80% 30.19 in 10.0 mi East 9.2 mph - N/A   Clear
7:35 PM 28.4 °F 23.3 °F 23.0 °F 80% 30.17 in 10.0 mi ENE 4.6 mph - N/A   Clear
7:55 PM 24.8 °F 17.9 °F 21.2 °F 86% 30.18 in 10.0 mi NNW 5.8 mph - N/A   Clear
8:15 PM 24.8 °F - 21.2 °F 86% 30.18 in 10.0 mi Calm Calm - N/A   Clear
8:35 PM 28.4 °F - 23.0 °F 80% 30.19 in 10.0 mi Calm Calm - N/A   Clear
8:55 PM 26.6 °F - 23.0 °F 86% 30.19 in 8.0 mi Calm Calm - N/A   Clear
9:15 PM 26.6 °F 22.6 °F 23.0 °F 86% 30.19 in 7.0 mi ESE 3.5 mph - N/A   Clear
9:35 PM 24.8 °F - 23.0 °F 93% 30.20 in 7.0 mi Calm Calm - N/A   Clear
9:55 PM 24.8 °F - 23.0 °F 93% 30.19 in 6.0 mi Calm Calm - N/A   Clear
10:15 PM 26.6 °F - 23.0 °F 86% 30.20 in 8.0 mi Calm Calm - N/A   Clear
10:35 PM 24.8 °F - 23.0 °F 93% 30.19 in 7.0 mi Calm Calm - N/A   Clear
10:55 PM 26.6 °F - 23.0 °F 86% 30.19 in 7.0 mi Calm Calm - N/A   Clear
11:15 PM 24.8 °F 20.5 °F 23.0 °F 93% 30.19 in 6.0 mi WNW 3.5 mph - N/A   Clear
11:35 PM 24.8 °F - 23.0 °F 93% 30.19 in 7.0 mi Calm Calm - N/A   Clear
11:55 PM 24.8 °F - 23.0 °F 93% 30.19 in 6.0 mi Calm Calm - N/A   Clear